Wetbulb
65.62 65.86 66.85 68.06 69.29 68.72 70.16 69.06 68.95 70.12 71.43 71.68 72.49 72.16 71.46 71.77 71.61 70.90 71.15 71.53 72.32 71.49 70.92 71.21 71.66 71.73 72.38 72.64 73.52 73.00 72.32 71.37 71.68
62.07 63.07 64.59 65.24 66.97 69.24 69.63 69.42 68.93 68.58 68.68 68.61 70.31 71.21 72.33 71.82 71.53 73.12 72.59 72.79 72.57 72.94 72.28 72.56 72.06 72.15 72.60 72.96 73.32 72.56 72.43 71.95 71.72
60.73 60.96 61.11 62.17 63.05 63.74 65.02 66.97 67.79 68.74 68.52 69.05 69.72 70.69 71.68 71.98 71.72 71.86 71.97 71.93 72.04 72.18 72.99 72.10 72.61 71.85 72.45 72.73 72.92 72.86 72.27 71.66 71.85
59.96 59.98 59.81 60.35 61.02 61.87 62.38 63.07 63.20 63.90 65.20 64.99 67.01 68.93 69.63 70.71 71.44 71.48 71.42 71.95 72.24 72.50 72.51 72.12 72.37 72.50 71.62 71.66 71.65 72.18 71.79 71.43 71.00
58.33 59.99 60.02 60.37 60.26 59.99 60.85 61.81 61.35 61.27 61.72 61.41 62.23 64.61 64.61 65.87 67.95 68.79 69.41 69.36 70.77 71.68 70.45 70.57 71.71 71.69 71.80 71.76 71.75 71.84 71.81 71.41 72.07
57.62 58.02 58.63 58.31 57.52 57.35 59.19 59.43 59.13 59.86 60.48 60.61 61.56 62.47 61.91 62.54 63.66 64.49 65.67 67.86 69.38 69.24 69.53 70.30 70.00 68.72 69.93 71.02 71.51 71.62 72.17 72.04 71.85
57.46 57.96 57.25 55.79 55.89 56.44 58.33 59.09 59.39 60.04 59.69 59.89 60.17 60.35 60.78 61.12 61.71 63.04 64.71 65.99 67.25 68.53 69.23 68.83 68.60 68.97 70.46 69.52 69.79 71.04 72.00 72.30 71.89
57.13 55.80 55.50 55.83 55.53 55.84 57.47 58.29 58.05 59.54 58.69 58.81 59.08 59.16 59.52 60.78 61.37 62.61 63.19 63.73 64.81 66.11 67.10 67.74 68.46 69.03 69.94 71.01 70.89 71.23 70.89 71.68 71.51
54.39 54.67 55.98 56.88 58.04 57.95 57.40 57.51 57.06 58.45 58.04 57.69 57.44 57.60 58.23 59.94 59.55 59.49 60.13 61.12 62.22 63.97 64.47 65.33 66.71 66.96 67.57 68.31 70.13 68.32 67.69 68.47 67.72
53.87 54.94 56.79 56.56 56.71 56.58 56.85 56.80 56.56 56.46 56.53 56.59 55.73 55.94 57.68 58.68 58.48 58.16 58.28 59.23 60.01 60.70 61.54 62.99 63.89 65.45 66.24 66.74 67.86 66.67 66.29 67.56 68.49
54.87 56.93 55.84 54.85 54.23 53.85 56.17 55.48 55.41 55.12 55.15 54.54 54.86 55.49 56.10 56.48 56.60 56.91 57.61 57.76 57.72 58.30 59.31 59.55 61.02 63.04 64.69 65.34 66.82 65.07 64.42 65.89 66.69
55.36 54.97 53.95 53.49 54.13 54.78 54.15 54.01 54.09 54.09 54.01 53.65 54.30 54.71 54.79 55.33 55.47 55.59 55.77 55.79 56.62 57.30 57.12 57.75 58.76 61.97 63.79 64.16 64.96 63.32 63.10 63.96 66.06
54.17 54.24 53.75 53.52 54.62 53.89 53.23 52.83 53.11 52.69 52.18 52.62 53.07 55.44 55.69 56.30 56.44 55.59 54.59 54.67 55.96 56.64 56.26 57.11 58.83 60.21 61.42 62.26 63.55 62.34 61.47 62.59 65.32
52.81 53.35 54.28 54.47 53.92 52.80 52.39 52.30 52.26 51.15 51.31 51.26 53.34 56.02 55.37 55.98 56.16 55.53 55.52 55.06 55.72 56.26 56.86 57.08 57.77 59.02 60.54 61.87 62.17 63.78 60.47 59.74 62.87
53.30 53.19 53.58 53.90 52.68 52.36 52.16 52.67 52.08 50.82 50.35 52.67 53.65 53.45 53.55 54.62 54.91 55.59 56.05 54.36 54.58 54.97 56.04 56.38 57.27 57.97 59.03 60.74 61.57 60.91 60.16 57.49 57.33
52.78 52.79 52.48 52.86 51.94 51.17 51.50 51.98 53.77 52.23 52.81 52.35 52.29 53.43 53.79 54.14 54.73 55.26 54.46 53.62 53.74 54.83 57.76 57.51 57.27 57.87 58.17 59.75 60.98 60.75 59.47 58.28 57.57
51.59 51.98 52.12 52.01 50.84 49.55 49.59 50.45 53.13 52.96 53.40 53.94 53.77 53.25 53.41 53.91 53.95 54.13 54.85 54.52 55.35 56.80 58.45 59.00 59.59 58.37 58.11 57.99 59.13 60.00 60.52 61.62 62.07
51.30 52.03 52.07 51.36 50.03 49.36 48.98 49.88 52.65 53.75 53.82 54.02 53.00 53.33 53.80 53.60 54.10 54.68 55.60 56.46 56.74 58.32 59.29 56.70 56.99 56.58 56.00 56.38 56.76 56.68 49.97 51.37 57.85
50.35 50.31 51.27 50.61 49.82 49.30 48.99 49.25 50.27 51.36 53.81 53.97 53.21 52.99 52.96 52.90 53.02 53.93 55.58 56.03 56.39 54.81 52.83 48.67 47.58 46.88 49.34 53.35 51.34 47.38 44.85 43.41 44.14
49.48 49.41 49.81 50.54 49.94 50.01 49.20 48.71 49.07 50.14 50.88 53.73 53.66 52.56 52.38 52.03 52.49 53.15 52.94 53.79 54.30 53.98 55.47 50.30 48.52 46.58 46.49 45.74 45.21 45.57 43.45 43.07 43.23
MSLP
1014.39 1014.21 1014.26 1014.40 1014.72 1014.67 1014.66 1014.41 1013.69 1013.60 1013.81 1014.10 1014.28 1014.79 1014.83 1014.93 1014.36 1014.39 1014.27 1014.27 1014.16 1014.09 1014.30 1014.26 1014.12 1014.03 1014.05 1014.03 1013.87 1013.86 1014.15 1014.49 1014.77
1014.50 1014.96 1015.32 1015.40 1015.28 1015.51 1015.40 1015.28 1014.64 1014.98 1014.17 1015.18 1014.94 1014.74 1014.57 1014.62 1014.41 1014.04 1013.90 1014.01 1013.70 1013.49 1013.43 1013.68 1013.79 1013.75 1013.76 1013.69 1013.59 1013.71 1013.76 1014.10 1014.31
1014.45 1014.75 1015.35 1015.59 1015.86 1015.80 1015.97 1015.97 1016.14 1016.23 1015.82 1015.70 1015.49 1015.29 1014.90 1014.69 1014.37 1013.85 1013.74 1013.56 1013.26 1013.17 1012.94 1012.99 1013.15 1013.27 1013.24 1013.16 1013.24 1013.25 1013.37 1013.49 1013.56
1014.51 1014.94 1015.47 1015.79 1016.03 1016.17 1015.90 1016.15 1016.39 1016.41 1016.12 1015.90 1015.80 1015.67 1015.14 1014.64 1014.42 1014.12 1013.92 1013.77 1013.50 1013.17 1012.89 1012.62 1012.48 1012.28 1012.44 1012.91 1013.02 1012.96 1013.03 1013.13 1013.08
1014.61 1015.23 1015.64 1015.90 1016.23 1016.17 1016.16 1016.02 1016.19 1016.35 1016.30 1016.21 1016.25 1015.84 1015.44 1015.08 1014.79 1014.46 1014.21 1013.94 1013.54 1013.27 1012.95 1012.63 1012.31 1012.25 1011.85 1012.47 1012.57 1012.43 1012.68 1012.76 1012.59
1014.71 1015.24 1015.84 1016.37 1016.73 1016.88 1016.93 1016.67 1016.57 1016.51 1016.42 1016.32 1016.11 1015.92 1015.76 1015.55 1015.32 1015.07 1014.79 1014.29 1013.72 1013.31 1013.10 1012.85 1012.53 1012.30 1012.46 1012.11 1011.95 1012.10 1012.21 1012.27 1012.25
1014.84 1015.46 1016.04 1016.74 1017.01 1017.24 1017.33 1017.10 1017.08 1016.94 1016.92 1016.94 1016.77 1016.56 1016.47 1016.31 1015.97 1015.53 1015.06 1014.59 1014.04 1013.43 1013.06 1012.77 1012.58 1012.40 1012.20 1012.02 1011.85 1012.05 1011.98 1011.93 1011.87
1015.07 1015.78 1016.34 1016.62 1017.19 1017.42 1017.46 1017.37 1017.31 1017.36 1017.45 1017.57 1017.37 1017.16 1016.90 1016.73 1016.29 1015.77 1015.32 1014.91 1014.39 1013.74 1013.19 1012.81 1012.51 1012.30 1011.99 1011.66 1011.57 1011.63 1011.46 1011.40 1011.45
1015.33 1015.77 1016.20 1016.51 1016.91 1017.17 1017.36 1017.51 1017.68 1017.76 1017.75 1017.87 1017.58 1017.36 1017.05 1016.75 1016.39 1015.91 1015.48 1015.01 1014.53 1013.96 1013.41 1012.95 1012.55 1012.13 1011.79 1011.57 1011.39 1011.23 1011.16 1011.03 1010.97
1015.06 1015.51 1015.72 1016.25 1016.79 1017.12 1017.50 1017.79 1017.92 1017.90 1017.93 1017.86 1017.69 1017.44 1017.16 1016.90 1016.58 1016.16 1015.61 1015.09 1014.61 1014.11 1013.60 1013.09 1012.63 1012.11 1011.72 1011.39 1011.04 1010.74 1010.58 1010.37 1010.28
1014.96 1015.44 1016.05 1016.47 1016.82 1017.48 1017.92 1017.98 1017.95 1018.09 1018.20 1018.06 1017.82 1017.61 1017.32 1016.97 1016.55 1016.00 1015.41 1015.00 1014.60 1014.10 1013.65 1013.22 1012.67 1012.04 1011.54 1011.19 1010.76 1010.43 1010.10 1009.82 1009.77
1015.00 1015.63 1016.09 1016.51 1017.10 1017.69 1017.97 1018.18 1018.40 1018.47 1018.40 1018.21 1017.94 1017.68 1017.27 1016.86 1016.44 1015.91 1015.40 1014.93 1014.51 1014.06 1013.65 1013.07 1012.48 1011.81 1011.25 1010.93 1010.27 1010.11 1009.83 1009.58 1009.37
1015.30 1015.42 1015.93 1016.84 1017.51 1018.00 1018.34 1018.62 1018.65 1018.63 1018.60 1018.44 1018.14 1017.56 1017.04 1016.52 1015.98 1015.58 1015.25 1014.97 1014.44 1013.90 1013.49 1012.80 1012.17 1011.45 1010.97 1010.53 1010.05 1009.61 1009.31 1009.17 1009.15
1015.32 1015.92 1016.70 1017.35 1017.92 1018.47 1018.71 1018.75 1018.77 1018.88 1018.81 1018.60 1018.11 1017.45 1016.94 1016.33 1015.86 1015.44 1014.98 1014.59 1014.21 1013.63 1013.07 1012.54 1011.91 1011.27 1010.47 1010.03 1009.72 1009.01 1008.66 1008.46 1008.49
1016.19 1016.71 1017.42 1017.99 1018.54 1018.82 1018.93 1019.04 1019.02 1018.98 1018.77 1018.37 1017.98 1017.53 1016.93 1016.29 1015.82 1015.27 1014.71 1014.35 1013.79 1013.20 1012.68 1012.24 1011.48 1010.81 1010.12 1009.47 1008.92 1008.67 1008.26 1008.20 1007.81
1016.73 1017.29 1017.94 1018.35 1018.71 1019.02 1019.06 1018.99 1018.80 1018.62 1018.39 1018.18 1017.82 1017.24 1016.72 1016.17 1015.54 1014.96 1014.57 1014.28 1013.68 1013.04 1012.27 1011.77 1011.12 1010.54 1010.02 1009.41 1008.77 1008.44 1007.98 1007.72 1007.54
1017.39 1017.85 1018.23 1018.57 1018.94 1019.19 1019.20 1018.96 1018.67 1018.29 1017.99 1017.79 1017.41 1017.01 1016.48 1015.97 1015.45 1014.86 1014.27 1014.08 1013.54 1012.87 1012.05 1011.44 1010.83 1010.31 1010.02 1009.47 1008.97 1008.48 1007.98 1007.81 1007.55
1017.69 1017.99 1018.35 1018.60 1018.89 1019.09 1019.07 1018.81 1018.36 1017.89 1017.72 1017.40 1017.10 1016.80 1016.38 1015.92 1015.40 1014.86 1014.26 1013.74 1013.23 1012.55 1011.70 1011.44 1011.10 1010.67 1010.27 1009.93 1009.37 1009.27 1009.26 1008.79 1008.31
1017.71 1017.97 1018.27 1018.60 1018.78 1018.87 1018.70 1018.50 1018.27 1017.93 1017.56 1017.29 1017.10 1016.79 1016.32 1015.91 1015.41 1014.84 1014.34 1013.75 1012.99 1012.27 1012.29 1011.97 1011.71 1011.37 1011.13 1010.62 1010.30 1009.63 1009.23 1008.92 1008.51
1017.67 1017.96 1018.17 1018.47 1018.55 1018.39 1018.31 1018.23 1018.09 1017.83 1017.50 1017.12 1016.91 1016.73 1016.38 1015.98 1015.51 1014.94 1014.58 1014.12 1013.67 1013.01 1012.06 1012.04 1011.87 1011.65 1011.43 1011.20 1010.85 1009.98 1009.49 1009.03 1008.58
Wind_Speed
11 12 12 11 7 8 11 12 14 14 8 4 1 3 8 6 6 5 6 8 5 5 5 5 6 6 6 6 7 7 6 4 5
14 10 8 10 12 8 7 9 11 11 13 6 7 6 4 4 3 3 6 8 7 6 6 4 6 7 6 7 7 7 7 5 6
13 12 11 10 8 9 6 6 6 5 5 4 4 3 3 2 4 4 4 4 5 6 6 7 7 7 6 6 6 7 6 6 6
11 9 8 7 7 5 7 6 6 5 6 7 7 6 5 6 5 5 5 5 4 5 5 7 8 7 7 6 6 7 5 6 7
9 10 8 7 6 6 6 7 6 6 5 6 5 5 6 7 6 7 7 6 6 5 6 5 5 5 5 4 5 6 6 7 7
8 10 8 7 6 6 5 5 5 6 7 7 7 7 8 7 7 7 7 8 7 6 6 5 5 4 4 3 4 6 6 6 7
6 9 9 6 6 4 4 4 5 5 6 6 6 7 7 7 7 7 6 7 8 7 6 6 5 6 5 5 6 7 6 6 7
10 8 7 7 5 3 4 5 5 4 5 5 5 6 6 6 6 6 6 7 8 8 7 6 5 5 6 5 5 5 6 6 6
8 8 7 7 7 6 4 5 5 5 5 4 4 5 6 5 6 7 7 7 8 7 8 8 7 6 5 5 4 8 9 7 6
8 7 7 8 6 5 6 6 5 6 5 5 6 6 6 6 6 6 6 7 7 8 8 8 8 7 6 7 7 9 10 10 5
8 8 7 6 6 6 6 4 6 5 5 6 6 5 6 6 8 9 9 8 7 7 7 8 8 9 7 7 7 11 10 9 5
7 7 6 7 7 6 6 6 4 5 6 5 6 6 6 7 7 9 10 10 10 9 9 9 9 9 8 7 10 9 11 9 6
7 8 7 7 7 5 6 4 5 6 6 4 6 5 7 7 8 8 9 10 11 6 7 10 8 10 9 9 10 11 11 9 4
6 6 9 7 7 6 4 3 4 5 5 6 6 8 8 9 9 9 11 10 8 9 9 9 10 10 9 9 7 12 12 11 5
9 9 7 7 6 5 3 3 4 4 5 6 6 6 8 9 9 8 8 9 9 10 9 9 9 8 8 6 7 9 8 6 7
7 8 7 5 6 4 2 1 4 5 5 6 6 7 8 9 10 9 7 8 10 9 9 7 7 6 5 6 5 5 8 10 3
6 6 6 5 6 3 2 3 5 6 6 6 6 7 8 8 8 10 8 6 6 7 8 8 7 5 6 5 5 5 4 5 3
6 6 5 5 5 3 1 4 3 4 4 5 6 7 7 7 7 8 8 7 5 7 9 7 5 6 5 6 6 4 7 6 6
5 4 5 5 5 4 3 3 4 5 4 4 5 6 6 6 6 6 6 7 9 9 5 9 9 7 9 6 9 11 11 11 10
5 4 4 6 6 6 4 2 3 4 5 5 4 4 6 6 6 6 6 6 7 8 8 6 16 17 13 12 8 13 9 9 10
Wind_Direction
75 70 48 47 28 10 31 25 40 47 48 53 245 228 238 264 251 232 234 233 222 221 213 218 236 247 234 229 226 229 210 197 220
111 101 89 81 67 66 47 29 40 58 75 15 38 25 25 45 16 254 228 235 228 222 224 216 231 234 236 246 231 209 206 214 220
120 114 105 102 102 99 81 60 42 34 60 67 44 358 18 2 343 347 338 328 285 258 248 233 217 214 224 244 235 222 206 221 227
123 116 116 106 103 97 108 92 69 63 50 37 14 350 350 0 340 339 333 324 336 332 288 260 239 224 207 223 228 238 223 221 234
122 134 135 113 89 67 61 70 54 48 38 40 15 7 9 10 6 355 336 314 317 314 314 320 314 306 248 235 244 241 215 234 233
137 125 106 99 91 81 84 72 44 30 24 20 14 9 3 355 350 349 337 328 304 299 299 302 314 309 317 329 297 278 257 242 241
129 118 123 124 98 96 102 79 63 67 42 20 7 3 357 348 342 336 338 334 334 320 307 303 297 279 251 233 250 261 258 254 249
128 127 126 115 116 97 93 76 59 65 50 20 360 4 356 344 338 339 347 347 337 338 333 317 299 294 282 262 244 244 236 246 245
143 141 135 113 94 79 49 47 57 68 47 17 6 357 343 339 341 338 337 335 336 333 337 341 329 322 304 290 278 269 261 250 240
142 130 107 93 86 65 49 73 59 47 26 357 351 344 347 344 331 322 316 315 322 325 328 324 321 319 320 306 282 269 268 274 265
131 121 119 104 87 67 74 64 49 29 11 0 350 359 343 335 334 328 324 320 313 311 310 311 306 303 298 299 295 278 276 273 278
144 143 134 105 93 105 79 64 36 30 8 359 356 341 329 320 319 319 322 322 318 312 308 308 300 291 291 289 299 294 279 287 278
124 113 105 100 102 89 78 40 39 32 354 344 331 311 308 298 311 316 309 311 311 296 289 292 295 294 290 283 288 293 281 271 256
111 111 106 100 87 94 96 56 31 4 343 328 303 321 317 315 314 309 316 312 302 302 296 289 285 282 284 280 268 285 292 276 235
113 115 112 109 104 91 63 41 44 344 333 306 316 309 310 315 314 309 308 307 305 302 297 281 278 278 284 277 276 274 286 305 211
118 121 119 112 108 102 97 11 346 338 325 314 304 302 319 322 314 310 309 308 304 305 303 290 286 282 280 293 292 287 294 294 243
118 126 128 132 119 99 14 338 346 331 325 310 306 315 322 323 320 320 321 302 295 297 305 304 301 293 293 286 285 297 326 306 297
130 139 141 138 133 133 250 294 294 345 308 319 321 318 317 323 321 320 317 315 298 311 310 341 353 354 339 332 325 352 330 333 324
139 149 138 149 158 173 230 283 310 321 315 313 315 323 335 331 329 330 333 340 333 329 26 68 60 42 38 349 343 328 332 320 318
132 130 155 170 186 206 228 267 294 310 313 300 315 317 332 336 333 340 351 343 342 339 347 100 49 18 11 11 319 2 330 326 314